Temp
8 8 8 8 8 8 8 9 9 9 9 9 9 9 9 10 10 10 10 10 10 10 10 10 10 10 9 9 9 9 10 9 9 9 8 8 9 9 9 9 9 9 9 8 8
8 8 8 8 8 8 8 8 8 9 9 9 9 9 9 9 9 9 10 10 10 10 10 9 9 9 9 9 9 9 9 9 9 8 8 8 8 8 8 9 9 9 8 8 8
8 8 8 8 8 8 8 8 8 8 8 9 9 9 9 9 9 9 9 9 9 9 9 9 9 9 9 9 9 9 9 9 8 8 8 9 8 9 8 9 9 10 9 8 8
7 7 8 8 8 8 8 8 8 8 8 8 8 8 8 9 9 9 9 9 9 8 8 8 9 9 9 9 9 9 9 8 9 9 8 8 9 9 9 8 9 9 9 8 8
7 7 7 7 7 8 8 8 8 8 8 8 8 8 8 8 8 8 8 8 8 8 8 8 8 8 8 8 8 8 8 8 8 8 8 8 8 8 8 8 8 8 8 7 7
7 7 7 7 7 7 7 7 7 7 7 7 8 8 8 8 8 8 8 8 8 8 8 8 8 8 7 7 7 7 7 7 8 8 8 8 8 8 8 8 8 7 7 7 8
6 6 7 7 7 7 7 7 7 7 7 7 7 8 8 8 8 8 8 8 8 8 8 7 7 7 7 7 7 7 7 7 7 7 7 7 8 8 8 8 8 7 6 7 7
6 6 6 6 6 6 6 7 7 7 7 7 7 8 8 8 8 8 8 8 8 8 7 7 6 6 6 6 6 6 6 7 7 7 6 6 7 7 7 7 8 8 7 7 8
6 6 6 6 6 6 6 6 7 7 7 7 7 7 8 8 8 8 8 8 8 7 7 7 6 6 6 6 6 6 6 6 6 7 6 5 5 6 7 7 7 7 7 8 8
5 5 5 5 5 6 6 6 6 6 6 6 7 6 7 8 8 7 7 7 7 7 6 6 6 6 6 6 5 6 5 5 6 6 6 5 6 6 6 6 6 7 7 8 8
5 5 5 5 5 5 5 5 5 6 6 6 6 6 6 7 6 7 7 6 6 6 5 5 5 6 6 6 5 5 5 5 6 6 4 5 5 6 6 5 6 7 7 7 6
5 5 5 5 5 5 4 5 5 5 5 6 5 6 5 6 6 6 6 5 5 5 4 4 4 5 5 5 5 5 4 5 4 5 4 4 4 6 6 6 6 6 6 6 6
4 4 4 4 4 4 4 4 4 4 4 6 5 5 6 6 6 6 6 5 4 4 4 4 4 4 4 5 4 4 4 4 4 4 4 4 4 6 6 6 6 6 5 5 5
4 4 3 3 3 3 4 4 3 3 3 4 5 5 5 5 4 5 4 4 3 4 3 2 3 3 3 3 3 3 4 3 4 3 3 3 2 4 5 6 6 5 5 5 4
3 3 3 3 3 3 3 3 2 2 -0 3 3 4 4 4 4 4 4 3 3 2 2 3 3 3 3 3 3 3 3 3 3 3 2 2 2 3 5 5 5 5 5 4 3
2 2 2 3 3 3 2 1 1 1 -0 3 3 4 3 3 3 3 4 4 3 2 1 2 2 3 3 3 3 3 3 3 3 2 -1 3 2 3 4 4 5 5 5 4 3
2 2 2 2 2 2 1 1 0 0 2 3 3 4 3 3 3 3 3 3 4 2 2 2 3 3 3 3 3 2 2 2 -1 -2 -2 2 1 3 4 3 3 4 4 4 3
1 1 1 1 1 1 1 0 -0 0 2 3 3 3 3 3 3 2 2 3 2 2 2 2 2 3 3 3 3 3 2 2 -2 -4 -1 1 2 3 2 3 3 2 2 2 2
1 1 1 1 1 1 1 -0 -0 0 2 2 2 1 1 2 2 2 2 2 2 2 2 2 2 3 3 3 2 1 1 1 1 0 -2 1 1 2 1 2 1 1 0 -0 -1
0 1 0 1 1 0 -0 -0 0 0 1 2 1 1 1 1 1 0 1 1 2 3 2 2 1 2 2 1 1 1 1 -0 -0 -5 -6 -2 -0 1 1 0 -1 -1 -1 -2 -2
0 0 0 1 0 -0 -0 -1 -1 -0 -0 -0 -0 0 0 -1 -0 1 1 1 2 2 1 1 1 0 0 1 1 0 -0 -1 -0 -0 -5 -6 -1 -0 0 -1 -1 -2 -2 -2 -2
-0 -0 -0 -0 -0 -0 -0 -1 -1 -1 -0 -1 -1 -0 -1 -0 -1 0 0 1 0 0 1 0 0 -0 -0 -0 -0 -1 -0 -1 -1 -2 -2 -2 -1 -2 -2 -2 -2 -3 -3 -4 -4
-1 -0 -1 -1 -1 -1 -1 -1 -1 -2 -1 -1 -1 -1 -1 -1 -2 -1 -1 -1 -1 -1 -0 -0 -2 -2 -2 -2 -2 -2 -1 -2 -3 -3 -3 -4 -3 -2 -3 -3 -3 -4 -4 -4 -4
-1 -2 -2 -3 -2 -2 -2 -1 -2 -1 -2 -2 -1 -2 -2 -2 -2 -2 -2 -1 -1 -1 -2 -2 -2 -2 -2 -2 -2 -2 -2 -4 -4 -5 -5 -4 -4 -3 -3 -3 -3 -4 -5 -5 -6
-2 -2 -2 -2 -2 -2 -2 -2 -2 -2 -2 -2 -2 -3 -2 -3 -3 -3 -3 -3 -3 -3 -3 -3 -3 -3 -3 -3 -4 -3 -3 -4 -5 -4 -6 -4 -4 -3 -3 -3 -4 -4 -4 -5 -6
-2 -2 -2 -2 -2 -2 -2 -2 -2 -2 -3 -2 -3 -2 -3 -3 -3 -3 -3 -4 -4 -4 -4 -4 -4 -4 -4 -5 -5 -5 -4 -5 -5 -4 -5 -4 -4 -3 -4 -5 -5 -6 -7 -8 -8
-3 -4 -3 -2 -3 -3 -3 -3 -3 -3 -3 -4 -4 -4 -4 -4 -4 -4 -5 -4 -4 -4 -4 -5 -5 -5 -6 -6 -7 -7 -5 -5 -4 -4 -5 -6 -5 -6 -6 -7 -8 -9 -9 -9 -9
Height
3180 3181 3181 3182 3182 3183 3183 3183 3183 3184 3184 3184 3184 3183 3183 3183 3183 3183 3183 3183 3182 3182 3181 3181 3181 3181 3181 3181 3181 3180 3181 3180 3180 3180 3181 3181 3181 3181 3181 3180 3179 3178 3177 3175 3174
3177 3178 3179 3180 3180 3181 3181 3181 3181 3182 3181 3181 3182 3181 3181 3181 3181 3180 3181 3179 3179 3179 3179 3179 3179 3178 3179 3179 3179 3179 3179 3179 3178 3178 3178 3179 3179 3177 3177 3177 3177 3175 3173 3171 3170
3175 3175 3176 3177 3178 3178 3179 3179 3179 3179 3178 3178 3179 3179 3179 3178 3179 3178 3177 3177 3177 3177 3177 3177 3178 3178 3177 3177 3177 3177 3178 3177 3177 3177 3177 3177 3177 3176 3173 3173 3171 3171 3169 3167 3166
3171 3172 3173 3174 3175 3175 3175 3176 3176 3176 3176 3175 3176 3176 3176 3176 3178 3175 3175 3175 3175 3175 3175 3175 3175 3175 3175 3174 3173 3174 3175 3175 3176 3175 3173 3173 3172 3172 3170 3167 3168 3167 3165 3162 3161
3167 3168 3169 3170 3171 3171 3171 3172 3172 3172 3172 3172 3172 3172 3173 3173 3174 3172 3172 3171 3171 3171 3171 3172 3171 3171 3171 3171 3171 3169 3170 3170 3170 3171 3169 3168 3167 3166 3166 3166 3165 3165 3160 3158 3158
3162 3163 3165 3166 3167 3167 3167 3168 3168 3168 3168 3168 3168 3168 3169 3170 3169 3169 3168 3168 3168 3168 3168 3168 3168 3168 3168 3168 3168 3166 3166 3166 3166 3166 3164 3164 3164 3163 3164 3163 3163 3160 3155 3154 3153
3157 3158 3160 3161 3162 3162 3163 3163 3164 3164 3164 3164 3164 3164 3164 3166 3164 3164 3164 3164 3164 3164 3164 3164 3165 3165 3164 3163 3162 3162 3162 3162 3162 3161 3160 3159 3160 3159 3159 3160 3159 3153 3150 3149 3148
3152 3153 3154 3155 3156 3157 3158 3158 3159 3159 3160 3160 3160 3160 3159 3159 3159 3159 3159 3159 3159 3160 3160 3160 3160 3160 3160 3159 3159 3158 3159 3158 3158 3157 3157 3156 3155 3155 3155 3155 3153 3148 3146 3145 3144
3146 3147 3149 3150 3150 3151 3153 3153 3153 3154 3154 3154 3155 3154 3155 3154 3154 3154 3154 3154 3154 3154 3154 3155 3156 3156 3155 3155 3156 3154 3153 3154 3154 3154 3152 3152 3149 3151 3151 3150 3145 3144 3142 3140 3138
3140 3141 3143 3144 3145 3146 3147 3148 3148 3148 3149 3149 3149 3151 3150 3150 3149 3150 3150 3150 3150 3149 3150 3151 3151 3151 3151 3151 3151 3151 3150 3149 3149 3151 3147 3145 3143 3144 3145 3145 3141 3140 3139 3135 3134
3133 3135 3136 3137 3138 3140 3142 3143 3145 3144 3143 3144 3144 3143 3144 3144 3145 3145 3145 3145 3145 3145 3145 3145 3145 3146 3148 3148 3147 3146 3145 3144 3145 3146 3141 3140 3138 3140 3140 3139 3138 3136 3134 3133 3131
3126 3127 3129 3130 3132 3134 3136 3136 3137 3137 3135 3136 3136 3136 3137 3138 3139 3139 3140 3139 3139 3139 3139 3140 3138 3143 3143 3142 3142 3141 3139 3138 3139 3140 3137 3135 3134 3135 3134 3133 3132 3130 3129 3127 3126
3118 3120 3122 3123 3125 3128 3130 3132 3131 3130 3128 3128 3128 3127 3129 3131 3129 3130 3132 3129 3130 3132 3132 3132 3136 3137 3137 3137 3135 3135 3134 3135 3135 3135 3132 3130 3129 3130 3129 3127 3125 3124 3123 3123 3123
3111 3113 3115 3116 3121 3122 3124 3125 3125 3125 3123 3117 3117 3114 3117 3119 3118 3120 3122 3124 3124 3125 3127 3125 3127 3129 3131 3131 3133 3131 3132 3132 3132 3131 3129 3128 3122 3122 3121 3120 3119 3119 3119 3120 3118
3103 3106 3108 3109 3112 3116 3118 3119 3120 3123 3121 3112 3109 3109 3109 3113 3113 3113 3114 3115 3117 3119 3123 3123 3122 3123 3124 3125 3128 3130 3130 3129 3128 3127 3124 3124 3123 3112 3113 3115 3114 3114 3115 3116 3116
3095 3097 3100 3100 3104 3109 3111 3114 3116 3122 3109 3105 3104 3104 3106 3107 3108 3109 3111 3112 3113 3115 3116 3118 3120 3121 3121 3123 3125 3127 3128 3127 3125 3124 3121 3116 3118 3110 3110 3110 3112 3111 3111 3113 3114
3085 3089 3089 3092 3096 3100 3104 3106 3112 3104 3100 3098 3098 3100 3102 3104 3104 3106 3107 3108 3110 3111 3112 3114 3114 3117 3119 3120 3121 3121 3125 3126 3124 3123 3116 3110 3110 3105 3106 3107 3108 3109 3109 3110 3110
3074 3078 3077 3081 3087 3091 3094 3094 3092 3084 3091 3091 3092 3095 3098 3100 3102 3102 3102 3104 3106 3108 3110 3110 3111 3110 3113 3114 3116 3115 3116 3115 3119 3119 3110 3110 3102 3099 3101 3102 3103 3104 3105 3106 3107
3063 3062 3063 3068 3076 3081 3083 3078 3073 3076 3084 3086 3089 3090 3093 3095 3098 3098 3098 3099 3101 3103 3107 3104 3105 3105 3104 3107 3111 3111 3111 3112 3111 3109 3109 3100 3097 3095 3096 3097 3098 3100 3100 3101 3102
3049 3052 3055 3062 3065 3071 3069 3066 3065 3070 3077 3080 3081 3085 3085 3091 3091 3093 3093 3093 3094 3097 3096 3100 3098 3099 3101 3101 3103 3104 3107 3107 3107 3110 3113 3095 3091 3086 3090 3092 3093 3094 3094 3094 3094
3038 3042 3046 3051 3056 3058 3055 3055 3056 3063 3068 3073 3073 3078 3079 3083 3085 3087 3086 3085 3087 3091 3092 3094 3095 3094 3095 3094 3096 3099 3097 3099 3100 3097 3096 3098 3085 3082 3086 3089 3090 3089 3088 3087 3086
3028 3031 3035 3040 3043 3041 3043 3042 3049 3057 3060 3063 3066 3070 3072 3075 3080 3078 3080 3080 3080 3083 3085 3087 3087 3086 3088 3089 3090 3089 3088 3090 3089 3087 3085 3085 3079 3080 3082 3084 3085 3084 3082 3080 3078
3017 3018 3025 3028 3027 3032 3037 3043 3045 3049 3053 3056 3057 3063 3065 3066 3074 3071 3073 3074 3076 3078 3078 3081 3079 3078 3080 3085 3083 3083 3081 3079 3079 3079 3077 3081 3074 3075 3075 3077 3077 3076 3074 3072 3070
3009 3010 3013 3017 3019 3027 3030 3036 3036 3039 3044 3047 3049 3055 3053 3057 3062 3061 3063 3066 3067 3069 3071 3072 3070 3067 3067 3071 3072 3074 3072 3071 3074 3073 3072 3066 3068 3071 3070 3071 3070 3068 3066 3063 3060
2997 3000 3005 3006 3010 3013 3021 3025 3025 3031 3035 3038 3041 3043 3045 3048 3052 3053 3056 3058 3059 3060 3062 3064 3062 3062 3064 3064 3064 3065 3065 3062 3064 3064 3064 3059 3062 3060 3064 3061 3060 3058 3057 3055 3053
2986 2989 2995 2998 3002 3008 3011 3012 3016 3022 3025 3025 3030 3035 3038 3039 3043 3046 3051 3051 3052 3051 3053 3054 3054 3055 3055 3056 3056 3054 3055 3056 3055 3055 3052 3052 3048 3055 3053 3051 3049 3048 3045 3043 3041
2980 2982 2986 2986 2992 2997 3000 3001 3006 3012 3014 3019 3024 3027 3030 3032 3035 3038 3044 3048 3048 3048 3047 3047 3047 3050 3048 3048 3048 3045 3040 3045 3044 3044 3043 3041 3042 3044 3042 3040 3039 3039 3036 3034 3031
Wind_Speed
8 7 6 6 6 6 6 6 6 7 7 8 8 8 9 9 9 9 9 10 10 9 10 9 9 8 7 7 7 6 4 3 7 5 7 8 10 14 17 19 17 17 13 13 16
11 10 10 9 9 9 9 9 9 9 10 10 10 10 10 10 10 11 12 11 10 10 10 9 8 8 7 7 9 8 7 5 7 9 10 12 15 19 21 20 15 16 16 14 15
13 12 12 12 12 12 12 12 12 12 12 12 12 11 11 12 11 13 9 5 4 5 6 7 9 11 14 14 11 12 8 8 9 12 14 14 15 17 22 18 16 15 13 16 18
16 15 15 14 14 14 14 14 13 13 13 13 13 13 12 12 8 7 11 12 12 12 13 15 16 15 14 14 14 13 8 9 9 12 15 17 18 16 18 14 11 12 14 12 13
18 18 18 17 16 16 16 16 15 15 16 16 16 16 16 14 13 15 16 16 15 13 13 13 14 13 12 11 13 18 18 18 18 13 15 19 17 12 7 11 11 9 14 15 15
21 21 20 19 19 19 18 18 18 18 18 18 18 18 18 17 15 15 15 15 14 15 15 16 16 15 17 18 19 21 22 20 18 17 13 7 9 12 7 10 12 17 18 19 22
23 23 22 22 21 21 20 20 20 20 20 19 19 19 19 17 17 17 16 17 18 18 19 18 18 18 20 21 21 18 19 23 13 5 8 11 13 10 12 14 19 19 18 19 21
25 24 24 23 23 23 22 21 21 21 20 20 20 20 21 20 19 18 18 18 19 19 20 20 19 20 22 23 23 23 22 16 10 11 12 14 18 13 19 21 21 20 21 23 24
28 26 25 25 24 23 23 22 22 22 21 21 21 22 22 22 19 17 16 15 15 17 19 19 19 20 22 21 19 18 13 13 16 15 15 15 23 24 23 23 18 19 22 23 22
29 28 26 26 25 24 24 23 23 23 23 22 23 21 20 21 20 19 18 18 20 20 20 19 20 21 22 19 17 12 15 17 19 19 20 24 27 27 27 14 19 18 18 21 23
29 28 28 27 26 25 24 23 23 25 24 22 21 21 21 23 23 22 22 22 21 20 19 19 21 21 18 17 17 21 23 23 23 18 25 28 31 27 14 15 16 20 24 23 26
30 30 29 29 27 25 22 22 22 24 26 26 25 27 25 25 26 27 28 30 30 30 28 27 27 24 20 23 24 23 22 24 23 19 24 22 19 15 19 17 22 24 23 26 24
32 31 29 29 27 25 24 24 26 27 30 35 33 34 32 32 34 32 33 36 35 34 33 32 26 20 19 19 22 22 24 24 24 21 16 20 24 17 19 22 19 20 21 22 24
33 32 31 29 29 27 28 28 26 26 25 30 36 32 31 32 35 35 36 36 34 32 25 20 19 21 23 24 22 26 25 23 14 11 10 10 8 14 23 14 19 20 21 21 19
34 34 33 33 32 28 27 24 20 18 6 9 15 17 14 15 14 11 15 21 24 24 21 12 8 9 20 19 14 13 8 9 12 16 19 20 14 11 15 18 22 20 20 20 19
37 37 36 38 35 30 26 21 19 10 10 9 13 16 18 15 13 11 10 11 10 16 18 16 13 12 10 8 9 10 11 14 18 19 6 21 19 5 11 6 11 17 19 21 19
40 44 43 40 36 29 24 24 17 14 9 14 19 19 15 15 15 14 12 12 10 10 12 10 14 13 14 15 16 17 14 4 3 2 6 10 7 21 11 9 9 10 16 22 19
45 47 44 39 34 30 28 29 19 13 24 12 19 19 19 18 16 15 15 16 15 10 8 10 7 15 19 24 24 19 24 11 7 4 5 9 8 9 14 11 8 11 15 17 16
40 39 36 39 39 34 34 38 26 27 26 23 18 18 20 21 16 18 20 19 16 17 14 10 13 18 23 20 23 17 23 22 17 16 6 10 17 17 13 13 17 11 10 12 13
40 42 40 40 31 32 39 42 36 28 28 27 26 16 22 22 20 16 15 11 17 22 23 21 16 18 19 21 22 22 16 10 10 1 5 7 13 16 10 14 7 7 11 16 19
43 39 40 39 39 36 46 44 34 31 28 32 32 25 26 21 25 23 15 20 23 24 22 28 25 15 21 27 28 26 24 17 15 17 5 2 11 10 12 11 12 19 23 26 26
38 44 43 41 39 47 52 48 44 33 36 30 29 31 24 24 26 30 33 29 18 22 25 27 16 20 26 22 25 26 26 25 22 10 18 16 24 21 21 22 23 21 23 28 36
40 46 36 41 45 45 45 39 41 41 44 39 32 32 31 33 29 32 30 28 28 30 28 29 18 13 13 20 25 26 31 30 30 25 26 10 13 20 19 16 22 31 38 43 45
45 27 25 29 33 31 37 41 43 44 46 44 36 31 31 34 35 32 31 30 33 36 35 32 32 30 25 16 12 21 35 26 21 15 18 33 29 34 31 31 40 42 44 44 44
41 42 40 29 45 39 45 42 42 45 47 46 43 41 36 35 36 37 36 33 31 32 34 34 34 33 35 36 27 29 31 28 27 30 26 43 38 44 40 42 43 43 40 39 38
54 48 44 45 39 42 43 46 47 42 49 47 40 34 34 38 36 26 29 35 30 29 31 31 29 31 32 29 29 35 44 42 42 44 43 42 45 40 36 35 38 39 36 35 34
50 37 45 35 36 38 48 51 46 40 32 28 28 28 30 29 28 29 29 28 35 35 34 32 31 29 31 30 25 26 43 41 41 41 41 38 35 25 34 33 31 30 33 37 39
Wind_Direction
250 257 264 269 275 279 284 288 289 289 288 286 288 291 292 293 292 290 287 285 284 284 284 284 284 286 289 290 294 289 285 240 204 208 218 249 270 288 298 308 314 314 303 291 274
250 255 258 261 264 268 272 275 277 278 281 284 286 287 288 289 290 289 288 285 285 281 276 277 278 283 290 290 292 285 277 270 241 244 256 269 281 294 294 300 307 288 287 280 272
252 254 257 260 264 268 272 275 277 278 279 281 283 285 289 290 292 292 287 280 270 272 271 270 274 285 289 289 285 280 278 268 254 266 282 288 285 289 293 301 293 298 284 274 270
251 254 255 258 263 267 271 274 277 279 280 281 284 286 288 292 301 283 288 284 282 279 278 280 282 283 284 287 285 288 288 280 282 280 286 295 296 298 297 295 311 306 294 284 269
252 255 259 263 266 269 272 273 275 277 281 285 289 289 288 287 283 279 278 279 280 277 276 279 282 284 286 282 287 292 299 299 300 307 298 296 306 295 310 306 330 319 291 290 286
253 256 260 263 266 266 267 269 272 275 279 281 283 284 286 289 285 278 276 275 274 273 276 279 278 280 281 284 282 285 291 295 302 308 292 281 291 300 284 315 331 312 292 283 282
254 258 261 262 264 264 266 269 271 274 275 278 279 281 280 279 278 276 273 273 274 272 272 273 272 274 279 284 282 286 289 293 304 299 278 281 286 285 292 306 321 300 287 284 283
254 257 260 262 263 266 268 270 271 271 272 275 277 277 278 276 275 273 270 268 268 270 268 268 265 267 268 271 276 282 290 295 303 288 288 290 288 284 302 310 304 287 283 290 297
253 255 258 261 262 263 265 266 267 268 269 269 271 274 276 278 273 268 266 263 261 259 260 261 261 260 265 266 275 276 268 282 289 281 280 286 288 296 299 309 278 285 293 293 293
253 254 255 257 259 261 262 265 268 269 269 272 273 273 269 269 268 268 269 268 265 265 262 259 256 256 260 263 263 280 279 278 281 288 282 282 284 291 302 281 285 297 295 285 289
250 252 252 253 256 258 261 264 267 271 270 269 264 264 264 268 270 268 268 263 261 256 261 264 255 255 270 273 273 272 272 271 276 278 286 283 285 291 288 282 278 290 287 275 277
249 249 251 252 254 256 259 263 267 270 272 270 269 267 266 267 267 265 265 263 261 262 263 261 262 275 268 262 267 262 263 266 276 282 285 284 283 287 286 283 281 280 271 276 283
247 247 247 248 249 254 261 266 271 276 279 274 270 268 265 265 262 259 259 260 262 264 268 272 274 270 259 255 246 251 258 268 279 285 263 288 292 292 299 289 273 271 266 270 278
246 243 242 245 251 259 265 268 272 279 284 274 274 264 258 254 252 254 253 257 262 265 269 271 270 253 249 244 245 256 262 265 262 266 260 276 278 265 295 253 258 267 269 269 265
243 242 245 251 255 258 260 262 267 274 283 264 225 238 232 222 232 238 242 246 246 256 249 252 256 240 238 248 242 253 236 254 262 262 270 262 265 276 228 248 255 259 260 256 257
243 246 250 253 255 252 251 252 250 228 242 231 207 215 227 227 229 227 227 232 236 235 246 244 247 226 214 210 207 238 250 265 271 273 269 271 237 239 231 251 270 263 254 250 251
245 250 250 251 248 243 240 233 212 216 205 223 209 210 219 229 232 228 223 215 210 189 216 216 227 223 221 219 237 236 236 273 287 205 233 207 221 233 243 250 276 260 262 253 252
246 245 243 239 242 231 227 214 216 223 211 199 202 210 222 222 218 211 207 206 206 213 232 222 232 228 230 233 245 242 230 202 222 207 239 210 249 229 252 260 253 251 251 256 270
238 230 233 223 239 222 230 200 221 220 208 213 205 208 209 213 216 215 219 219 233 245 240 227 239 241 234 228 230 227 211 231 249 264 292 238 248 257 238 244 261 257 241 251 261
227 227 230 221 231 222 212 218 225 212 211 217 223 227 209 202 207 207 221 242 247 251 242 245 247 246 234 213 215 228 237 214 201 193 248 262 246 230 240 219 224 242 267 286 293
232 225 226 224 226 222 214 218 227 214 230 225 225 219 218 216 225 237 243 246 248 254 249 242 242 243 224 225 235 237 228 221 234 234 186 234 257 255 221 229 268 283 283 281 288
216 219 226 215 200 207 211 214 224 232 218 213 222 220 218 222 234 239 244 244 250 243 242 236 243 242 244 250 240 228 238 239 230 232 226 238 256 257 261 274 279 278 284 297 299
224 204 201 202 207 212 218 235 237 237 229 231 228 228 234 235 241 235 239 243 250 249 245 240 235 248 257 237 233 241 247 242 235 239 238 227 247 260 271 269 286 293 294 296 295
206 216 228 233 234 239 230 236 235 238 232 240 240 241 240 240 239 246 251 255 253 249 250 240 238 240 240 245 219 237 244 240 224 234 243 243 250 259 264 271 284 291 292 292 292
215 235 240 225 229 232 229 234 234 234 236 235 243 238 238 240 245 244 246 246 245 245 239 241 245 246 249 248 245 245 247 235 240 251 250 267 266 269 276 283 285 281 286 286 286
213 222 232 232 227 224 232 237 237 238 237 236 232 243 241 243 247 251 247 242 237 234 233 235 237 246 248 249 255 261 262 258 259 262 261 264 269 277 282 278 282 288 288 286 284
217 214 218 220 224 222 227 229 233 235 236 239 248 246 245 249 250 249 245 241 245 246 239 235 240 246 255 262 262 263 260 264 266 268 269 264 278 275 284 286 284 285 283 282 285